GFSFLT1_250_rhum_180.txt.gz
RH
53 74 89 96 100 100 100 100 100 99 93 89 87 80 82 86 87 85 81 67 63 65 62 58 62 57 58 68 66 64 64 57
46 44 52 81 97 83 73 74 74 68 65 69 72 78 79 77 76 89 76 78 73 65 52 59 63 72 75 65 66 56 60 58
73 67 51 41 49 60 71 64 62 56 55 56 58 63 66 73 73 61 51 54 54 55 54 60 70 69 70 63 58 54 47 44
100 100 99 97 84 90 78 81 90 91 78 92 100 100 100 100 93 80 81 71 71 74 60 53 48 42 42 35 33 28 28 26
93 100 100 100 100 100 100 100 100 100 97 100 100 100 91 60 66 75 83 85 84 78 58 41 38 46 47 37 31 30 27 26
94 98 86 94 100 100 100 100 100 100 100 94 90 96 99 100 99 100 97 84 78 77 62 50 43 38 34 33 32 45 61 53
100 100 100 100 98 100 100 100 100 100 100 100 100 99 94 83 66 53 38 38 36 32 32 36 35 35 49 59 62 65 61 55
100 100 100 100 100 100 100 100 100 100 97 93 81 72 77 73 67 66 61 51 46 35 48 43 49 51 57 57 56 61 59 54
65 59 78 89 83 85 89 89 93 95 93 96 89 85 76 68 52 52 48 48 46 56 49 50 53 53 56 64 71 64 60 57
81 81 80 60 58 55 68 90 84 80 75 76 73 65 54 57 52 47 58 50 47 47 48 49 56 72 77 71 66 62 62 53
92 80 78 76 73 70 68 66 66 78 85 75 66 61 62 56 50 50 44 46 48 55 56 59 70 65 64 65 64 58 44 35
93 88 84 77 76 84 79 76 85 88 76 68 69 73 70 66 57 48 42 45 49 53 58 64 62 63 63 56 49 39 45 47
82 82 80 84 83 83 81 78 77 79 82 81 80 70 67 62 50 42 45 48 52 56 60 60 67 58 46 42 45 54 56 56
95 88 76 87 85 87 94 95 89 85 81 74 68 62 57 49 44 45 49 51 58 67 72 64 48 43 47 59 66 61 60 70
99 100 100 97 93 88 83 84 76 71 69 63 55 53 50 46 54 50 60 73 76 73 54 46 44 53 73 79 69 68 74 75
95 99 100 96 94 88 85 83 70 64 64 55 57 55 51 55 65 74 77 77 57 50 47 52 64 90 88 72 76 78 77 74
88 55 74 100 91 77 79 75 72 60 52 53 50 55 58 76 78 72 58 51 52 52 62 84 100 94 74 75 85 82 82 73
83 70 62 80 75 59 75 76 62 56 59 50 53 65 82 60 43 49 55 58 61 72 94 100 95 75 72 80 87 86 84 87
54 53 44 59 68 52 52 49 55 58 50 67 72 78 50 42 51 56 62 69 81 98 100 98 81 76 79 83 90 93 94 86

GFSFLT1_250_rhum_183.txt.gz
RH
49 56 79 100 99 69 66 76 98 100 100 100 100 100 100 100 100 96 83 70 63 63 55 49 44 42 41 41 37 37 41 46
57 58 57 60 88 93 75 58 53 76 99 100 100 100 96 90 82 77 72 75 72 69 74 70 67 60 54 52 50 45 40 39
68 99 92 64 55 79 98 99 93 92 100 94 99 100 100 100 98 94 96 95 90 97 92 76 73 73 61 38 31 52 66 71
100 87 92 76 100 100 100 93 87 90 93 97 100 100 100 100 100 100 100 96 93 81 80 71 54 51 53 41 50 78 90 78
100 100 100 100 71 61 84 76 82 83 77 76 89 100 100 100 100 92 90 88 77 68 75 87 82 75 87 97 97 62 42 39
51 55 99 100 100 100 100 75 96 100 100 96 97 94 97 100 100 100 100 100 100 100 88 80 97 94 68 41 38 47 46 38
57 48 45 63 100 100 100 100 100 100 100 100 95 94 96 100 100 100 100 97 100 98 90 67 57 65 66 48 36 36 45 48
52 52 57 46 47 81 100 100 100 100 100 100 100 100 100 100 100 100 100 99 93 86 82 79 63 50 38 34 49 42 41 43
68 56 58 55 62 69 76 100 100 100 100 100 100 100 100 100 98 89 87 86 74 69 56 45 44 43 45 43 43 42 44 43
69 71 69 73 78 76 81 89 91 92 85 79 83 81 73 70 82 74 68 55 48 55 54 47 48 45 46 45 42 47 51 56
95 83 68 88 100 100 100 100 98 89 86 81 78 77 80 89 81 66 64 69 64 59 51 47 47 51 45 43 51 54 58 63
86 94 97 99 100 100 98 97 95 93 89 89 84 87 86 82 83 74 68 62 55 51 50 49 46 42 46 51 57 64 69 61
100 72 73 100 100 100 100 100 98 97 98 94 94 91 89 82 80 73 67 56 56 55 44 43 45 48 55 68 74 62 53 55
100 92 87 86 100 100 100 100 100 100 98 93 88 82 81 80 76 71 62 58 50 42 43 47 52 64 75 69 56 54 63 85
92 76 85 100 100 97 96 92 92 93 94 94 88 84 83 80 73 67 56 50 43 45 50 62 74 74 60 57 59 75 92 79
60 48 54 91 94 95 96 96 89 92 86 84 83 80 78 77 62 55 50 47 51 56 75 79 66 52 56 66 85 98 84 75
100 98 90 81 66 76 82 90 90 84 81 83 85 84 77 64 58 55 50 57 69 81 58 47 54 56 72 92 100 89 76 85
70 88 99 94 70 60 72 78 70 76 87 91 84 70 66 59 61 53 61 81 69 48 50 57 63 79 97 100 98 79 82 94
69 67 98 81 62 56 70 72 76 79 82 72 65 73 63 63 57 73 82 64 51 57 58 70 84 95 100 100 84 82 88 92

GFSFLT1_250_rhum_186.txt.gz
RH
56 62 99 93 100 100 90 76 78 78 75 96 100 100 100 100 100 100 100 100 100 100 100 100 100 100 100 89 73 61 49 41
57 62 72 100 100 91 100 82 71 76 81 100 100 100 100 100 100 100 100 100 100 100 100 100 100 97 87 82 71 59 57 52
60 88 86 94 100 98 76 76 83 97 84 75 84 88 94 99 98 98 99 100 100 100 100 98 100 100 89 79 90 88 75 59
51 58 87 85 94 100 100 97 92 85 63 64 69 74 82 89 88 86 85 78 74 71 78 83 79 76 72 74 88 91 73 37
63 64 93 84 86 81 80 100 100 100 99 90 80 69 64 63 78 84 88 82 80 80 92 97 99 96 95 74 62 61 56 52
67 67 70 74 76 90 93 67 86 100 100 100 100 100 80 70 64 68 80 87 92 93 95 87 86 82 78 85 73 67 78 93
68 67 61 82 94 94 85 95 82 69 79 100 100 100 100 100 100 100 100 95 91 95 98 96 94 92 86 92 92 90 92 77
88 93 98 98 100 91 72 71 78 84 74 62 75 100 100 100 100 100 100 100 100 100 100 100 100 100 100 99 94 86 84 69
90 100 92 92 84 94 97 98 94 85 69 64 60 61 85 100 100 100 100 100 100 100 100 100 100 89 84 82 76 63 59 46
84 84 100 100 100 91 99 94 98 99 95 77 78 79 79 90 100 99 100 100 100 100 88 74 60 63 68 64 61 53 49 42
86 78 95 100 100 75 92 94 99 100 100 99 100 98 99 99 100 100 99 97 88 77 71 67 65 62 62 60 52 45 41 38
98 97 100 100 100 100 90 79 99 98 100 100 100 97 99 100 97 95 99 91 81 76 73 68 63 61 58 55 48 40 32 36
96 94 100 100 100 99 100 95 86 89 100 100 100 100 100 100 98 97 98 90 81 75 68 68 63 61 59 50 32 34 38 53
98 98 100 100 100 100 100 100 74 67 97 100 100 97 98 98 98 93 82 79 77 74 69 65 65 64 42 33 37 50 72 85
100 83 100 100 100 100 100 99 100 83 75 83 89 94 92 87 86 83 82 81 78 72 70 68 56 39 36 42 64 86 84 69
100 100 94 75 73 91 95 98 100 100 88 86 84 85 84 76 81 86 86 84 74 76 66 52 44 42 52 78 88 75 64 70
84 100 100 100 100 64 76 73 84 84 88 90 91 96 90 74 70 71 69 69 78 63 59 53 52 66 86 70 61 65 79 95
60 91 100 100 98 90 88 79 72 72 62 63 60 70 86 88 90 85 79 76 75 64 62 61 80 92 59 64 70 84 97 100
38 50 82 90 80 93 85 75 74 82 78 74 75 79 84 82 81 71 75 80 73 66 69 85 90 65 70 77 89 100 100 100

GFSFLT1_250_rhum_192.txt.gz
RH
86 100 100 100 85 100 98 100 100 99 100 87 100 99 99 93 100 100 94 96 100 100 100 100 100 100 99 99 100 100 100 100
94 100 100 77 65 75 79 100 100 100 100 100 100 100 100 91 100 100 100 100 87 84 95 98 97 90 92 87 79 75 68 63
73 95 100 100 100 85 94 97 91 100 100 100 100 92 100 100 84 93 100 100 100 98 94 98 100 100 98 84 74 72 66 60
100 100 96 99 100 89 86 81 89 82 100 100 100 100 100 96 95 99 93 100 100 100 100 98 100 100 96 94 85 80 81 82
99 68 80 98 100 100 93 76 95 93 100 100 100 100 100 100 100 100 100 100 100 100 100 100 100 100 97 100 99 89 81 84
99 88 94 100 100 100 100 87 92 100 100 100 100 100 100 100 100 100 100 100 100 100 100 100 100 100 100 100 98 92 92 92
100 100 100 100 100 100 94 77 78 90 97 94 100 100 100 100 100 98 92 99 100 100 100 100 100 100 100 96 89 93 89 92
100 100 100 100 100 100 95 74 78 79 100 100 100 100 100 99 88 83 95 100 100 100 100 100 100 100 100 100 100 100 100 97
100 100 100 100 100 98 85 64 61 75 99 100 100 100 100 100 78 71 67 76 78 77 89 97 98 100 99 96 97 98 96 92
100 100 100 100 99 93 83 66 55 60 97 100 100 100 94 100 100 91 80 57 63 77 78 81 94 96 100 100 100 100 97 89
66 91 94 61 64 75 63 40 67 92 100 100 100 100 100 100 100 100 100 84 69 83 87 99 88 96 96 98 100 100 98 97
46 42 49 49 40 25 38 63 96 100 100 100 100 100 100 100 100 100 100 91 74 88 88 100 100 100 96 89 95 94 90 90
14 13 19 22 15 26 56 100 100 100 100 99 100 100 100 100 100 100 100 100 100 96 91 95 91 100 98 100 93 81 88 84
7 10 16 29 41 86 100 100 100 100 100 100 100 100 100 100 100 100 100 100 100 97 87 97 98 92 80 99 98 86 81 82
7 11 16 52 100 100 100 100 100 100 100 100 100 100 100 100 100 100 100 100 98 100 92 90 83 82 90 94 93 85 78 70
8 12 20 67 94 100 100 100 100 100 100 100 100 100 100 100 100 100 100 100 100 100 99 73 86 68 85 79 83 76 64 60
10 15 21 68 99 100 100 100 98 100 100 100 100 100 100 100 100 91 86 75 67 73 93 99 86 83 88 85 86 67 61 66
12 14 22 88 99 100 100 100 100 100 97 100 100 100 98 81 96 93 75 92 95 91 97 94 95 72 77 86 80 83 78 78
12 13 17 76 86 100 100 100 100 75 100 100 96 100 100 100 96 75 76 88 90 84 88 89 78 57 69 71 74 81 72 60